• In Belarus
  • List of Countries
  • For 7 days
  • Water Temperature
  • Satellite Maps
  • Weather Map
  • Weather Widgets
  • user-avatar
    Login

    Hourly Weather Pokrovskoe

    Today, 20 May, Monday

    Time Temperature Precipitation Wind Pressure Humidity
    00:00 0°C° 0 mm 4 mps 746 mmHg 85%
    01:00 0°C° 0 mm 4 mps 746 mmHg 87%
    02:00 0°C° 0 mm 3 mps 746 mmHg 89%
    03:00 0°C° 0 mm 3 mps 746 mmHg 91%
    04:00 0°C° 0 mm 3 mps 746 mmHg 94%
    05:00 0°C° 0 mm 4 mps 746 mmHg 89%
    06:00 +1°C° 0 mm 4 mps 746 mmHg 85%
    07:00 +3°C° 0 mm 4 mps 746 mmHg 81%
    08:00 +3°C° 0.1 mm 5 mps 746 mmHg 76%
    09:00 +5°C° 0.1 mm 5 mps 746 mmHg 71%
    10:00 +7°C° 0 mm 6 mps 747 mmHg 65%
    11:00 +8°C° 0.2 mm 6 mps 747 mmHg 58%
    12:00 +9°C° 0.2 mm 5 mps 747 mmHg 52%
    13:00 +10°C° 0.2 mm 5 mps 747 mmHg 45%
    14:00 +10°C° 0.1 mm 5 mps 747 mmHg 44%
    15:00 +10°C° 0.1 mm 5 mps 747 mmHg 44%
    16:00 +10°C° 0.1 mm 5 mps 747 mmHg 43%
    17:00 +11°C° 0 mm 4 mps 747 mmHg 46%
    18:00 +10°C° 0 mm 4 mps 747 mmHg 48%
    19:00 +10°C° 0 mm 3 mps 747 mmHg 51%
    20:00 +8°C° 0 mm 3 mps 747 mmHg 55%
    21:00 +7°C° 0 mm 3 mps 747 mmHg 59%
    22:00 +5°C° 0 mm 2 mps 748 mmHg 64%
    23:00 +5°C° 0 mm 2 mps 748 mmHg 66%

    Tomorrow, 21 May, Tuesday

    Time Temperature Precipitation Wind Pressure Humidity
    00:00 +4°C° 0 mm 2 mps 748 mmHg 68%
    01:00 +4°C° 0 mm 2 mps 748 mmHg 71%
    02:00 +3°C° 0 mm 2 mps 748 mmHg 70%
    03:00 +3°C° 0 mm 2 mps 749 mmHg 70%
    04:00 +2°C° 0 mm 2 mps 749 mmHg 69%
    05:00 +2°C° 0 mm 3 mps 749 mmHg 63%
    06:00 +4°C° 0 mm 3 mps 749 mmHg 58%
    07:00 +5°C° 0 mm 3 mps 749 mmHg 52%
    08:00 +7°C° 0 mm 4 mps 749 mmHg 47%
    09:00 +8°C° 0 mm 5 mps 749 mmHg 41%
    10:00 +9°C° 0 mm 5 mps 750 mmHg 35%
    11:00 +10°C° 0 mm 5 mps 749 mmHg 35%
    12:00 +12°C° 0 mm 5 mps 749 mmHg 34%
    13:00 +12°C° 0 mm 5 mps 749 mmHg 34%
    14:00 +13°C° 0 mm 5 mps 749 mmHg 34%
    15:00 +13°C° 0 mm 5 mps 749 mmHg 34%
    16:00 +13°C° 0 mm 5 mps 749 mmHg 34%
    17:00 +13°C° 0 mm 4 mps 749 mmHg 38%
    18:00 +12°C° 0 mm 3 mps 749 mmHg 42%
    19:00 +12°C° 0 mm 3 mps 749 mmHg 46%
    20:00 +10°C° 0 mm 3 mps 749 mmHg 50%
    21:00 +8°C° 0 mm 3 mps 749 mmHg 54%
    22:00 +5°C° 0 mm 3 mps 749 mmHg 59%
    23:00 +6°C° 0 mm 2 mps 749 mmHg 61%

    Day after tomorrow, 22 May, Wednesday

    Time Temperature Precipitation Wind Pressure Humidity
    00:00 +5°C° 0 mm 2 mps 749 mmHg 63%
    01:00 +5°C° 0 mm 2 mps 749 mmHg 65%
    02:00 +4°C° 0 mm 2 mps 749 mmHg 66%
    03:00 +4°C° 0 mm 2 mps 749 mmHg 67%
    04:00 +3°C° 0 mm 2 mps 749 mmHg 68%
    05:00 +5°C° 0 mm 2 mps 749 mmHg 64%
    06:00 +6°C° 0 mm 2 mps 749 mmHg 60%
    07:00 +8°C° 0 mm 2 mps 749 mmHg 56%
    08:00 +10°C° 0 mm 2 mps 749 mmHg 49%
    09:00 +12°C° 0 mm 2 mps 748 mmHg 42%
    10:00 +14°C° 0 mm 2 mps 748 mmHg 34%
    11:00 +15°C° 0 mm 2 mps 748 mmHg 33%
    12:00 +16°C° 0 mm 3 mps 748 mmHg 31%
    13:00 +17°C° 0 mm 3 mps 747 mmHg 30%
    14:00 +17°C° 0 mm 3 mps 747 mmHg 32%
    15:00 +17°C° 0 mm 3 mps 747 mmHg 34%
    16:00 +17°C° 0 mm 3 mps 747 mmHg 36%
    17:00 +16°C° 0 mm 3 mps 746 mmHg 41%
    18:00 +16°C° 0 mm 3 mps 746 mmHg 46%
    19:00 +15°C° 0 mm 2 mps 746 mmHg 52%
    20:00 +14°C° 0 mm 2 mps 746 mmHg 57%
    21:00 +11°C° 0 mm 3 mps 746 mmHg 63%
    22:00 +10°C° 0 mm 3 mps 746 mmHg 68%
    23:00 +9°C° 0 mm 3 mps 745 mmHg 76%

    23 May, Thursday

    Time Temperature Precipitation Wind Pressure Humidity
    00:00 +8°C° 0 mm 3 mps 745 mmHg 84%
    01:00 +7°C° 0 mm 2 mps 745 mmHg 92%
    02:00 +7°C° 0 mm 2 mps 744 mmHg 93%
    03:00 +7°C° 0 mm 2 mps 744 mmHg 94%
    04:00 +6°C° 0 mm 2 mps 743 mmHg 95%
    05:00 +7°C° 0 mm 2 mps 742 mmHg 90%
    06:00 +8°C° 0 mm 3 mps 742 mmHg 86%
    07:00 +8°C° 0 mm 4 mps 741 mmHg 81%
    08:00 +10°C° 0.1 mm 3 mps 740 mmHg 81%
    09:00 +11°C° 0.1 mm 3 mps 740 mmHg 82%
    10:00 +12°C° 0.1 mm 3 mps 739 mmHg 82%
    11:00 +12°C° 0.1 mm 3 mps 738 mmHg 83%
    12:00 +12°C° 0.1 mm 3 mps 738 mmHg 85%
    13:00 +13°C° 0.1 mm 3 mps 737 mmHg 86%
    14:00 +13°C° 0.3 mm 4 mps 737 mmHg 84%
    15:00 +14°C° 0.3 mm 5 mps 737 mmHg 82%
    16:00 +15°C° 0.3 mm 6 mps 737 mmHg 80%
    17:00 +14°C° 0 mm 5 mps 737 mmHg 78%
    18:00 +14°C° 0 mm 4 mps 738 mmHg 76%
    19:00 +13°C° 0 mm 3 mps 738 mmHg 74%
    20:00 +12°C° 0 mm 4 mps 739 mmHg 75%
    21:00 +10°C° 0 mm 4 mps 740 mmHg 77%
    22:00 +7°C° 0 mm 4 mps 740 mmHg 79%
    23:00 +6°C° 0 mm 4 mps 741 mmHg 78%

    24 May, Friday

    Time Temperature Precipitation Wind Pressure Humidity
    00:00 +4°C° 0 mm 3 mps 742 mmHg 77%
    01:00 +3°C° 0 mm 3 mps 743 mmHg 76%
    02:00 +2°C° 0 mm 3 mps 743 mmHg 76%
    03:00 +2°C° 0 mm 3 mps 744 mmHg 76%
    04:00 +2°C° 0 mm 2 mps 745 mmHg 76%
    05:00 +2°C° 0 mm 3 mps 745 mmHg 68%
    06:00 +3°C° 0 mm 3 mps 746 mmHg 61%
    07:00 +4°C° 0 mm 3 mps 746 mmHg 54%
    08:00 +5°C° 0 mm 3 mps 746 mmHg 49%
    09:00 +7°C° 0 mm 4 mps 747 mmHg 44%
    10:00 +8°C° 0 mm 4 mps 747 mmHg 39%
    11:00 +10°C° 0 mm 4 mps 747 mmHg 37%
    12:00 +11°C° 0 mm 4 mps 747 mmHg 36%
    13:00 +12°C° 0 mm 4 mps 747 mmHg 35%
    14:00 +12°C° 0 mm 4 mps 747 mmHg 35%
    15:00 +12°C° 0 mm 4 mps 747 mmHg 36%
    16:00 +13°C° 0 mm 5 mps 747 mmHg 36%
    17:00 +12°C° 0 mm 4 mps 747 mmHg 40%
    18:00 +12°C° 0 mm 4 mps 747 mmHg 44%
    19:00 +11°C° 0 mm 3 mps 747 mmHg 47%
    20:00 +9°C° 0 mm 3 mps 747 mmHg 51%
    21:00 +8°C° 0 mm 2 mps 748 mmHg 55%
    22:00 +6°C° 0 mm 2 mps 748 mmHg 59%
    23:00 +5°C° 0 mm 2 mps 748 mmHg 61%

    25 May, Saturday

    Time Temperature Precipitation Wind Pressure Humidity
    00:00 +4°C° 0 mm 2 mps 749 mmHg 63%
    01:00 +3°C° 0 mm 2 mps 749 mmHg 65%
    02:00 +4°C° 0 mm 1 mps 749 mmHg 64%
    03:00 +3°C° 0 mm 1 mps 750 mmHg 62%
    04:00 +3°C° 0 mm 1 mps 750 mmHg 61%
    05:00 +4°C° 0 mm 1 mps 750 mmHg 56%
    06:00 +5°C° 0 mm 2 mps 751 mmHg 52%
    07:00 +6°C° 0 mm 2 mps 751 mmHg 47%
    08:00 +7°C° 0 mm 2 mps 751 mmHg 43%
    09:00 +9°C° 0 mm 2 mps 751 mmHg 39%
    10:00 +10°C° 0 mm 3 mps 752 mmHg 35%
    11:00 +11°C° 0 mm 3 mps 751 mmHg 33%
    12:00 +12°C° 0 mm 3 mps 751 mmHg 31%
    13:00 +13°C° 0 mm 3 mps 751 mmHg 29%
    14:00 +14°C° 0 mm 2 mps 751 mmHg 29%
    15:00 +15°C° 0 mm 2 mps 751 mmHg 29%
    16:00 +15°C° 0 mm 2 mps 751 mmHg 28%
    17:00 +15°C° 0 mm 2 mps 751 mmHg 33%
    18:00 +14°C° 0 mm 2 mps 751 mmHg 37%
    19:00 +14°C° 0 mm 1 mps 751 mmHg 42%
    20:00 +12°C° 0 mm 1 mps 751 mmHg 45%
    21:00 +10°C° 0 mm 1 mps 752 mmHg 47%
    22:00 +7°C° 0 mm 2 mps 752 mmHg 50%
    23:00 +6°C° 0 mm 2 mps 752 mmHg 52%
    Show more